VE3KCY Weather Reports


Display with metric or nautical units.
time (UTC)temp
F
wind
direction
speed
MPH
gust
MPH
rain 1hr
in
rain 24hr
in
rain mn
in
humidity
%
barometer
mb
20260503214519 45 248 2.0 5.0 0.07 0.11 0.11 89 1008.2
20260503213023 45 274 2.0 7.0 0.05 0.09 0.09 89 1008.4
20260503211527 45 258 3.0 9.0 0.05 0.08 0.08 88 1008.4
20260503210028 45 233 4.0 9.0 0.04 0.06 0.06 87 1008.3
20260503204527 45 266 3.0 12.0 0.03 0.04 0.04 86 1008.5
20260503203024 46 257 4.0 11.0 0.04 0.04 0.04 85 1008.6
20260503201504 46 219 4.0 10.0 0.03 0.03 0.03 84 1008.7
20260503200009 47 238 4.0 12.0 0.02 0.02 0.02 81 1008.8
20260503194512 48 236 4.0 18.0 0.01 0.01 0.01 78 1009.0
20260503193016 52 307 6.0 17.0 0.00 0.00 0.00 62 1008.7
20260503191519 54 226 9.0 22.0 0.00 0.00 0.00 51 1008.6
20260503190005 55 203 4.0 19.0 0.00 0.00 0.00 47 1008.3
20260503184516 56 196 4.0 15.0 0.00 0.00 0.00 47 1008.4
20260503183014 56 284 4.0 15.0 0.00 0.00 0.00 44 1008.5
20260503181519 57 266 4.0 17.0 0.00 0.00 0.00 43 1008.4
20260503180024 55 267 4.0 17.0 0.00 0.00 0.00 42 1008.7
20260503174507 56 216 4.0 15.0 0.00 0.00 0.00 44 1009.1
20260503173014 56 233 3.0 15.0 0.00 0.00 0.00 44 1009.2
20260503171517 57 253 3.0 12.0 0.00 0.00 0.00 43 1009.2
20260503081516 26 260 0.0 0.0 0.00 0.00 0.00 79 1012.2
20260503071516 29 260 0.0 0.0 0.00 0.00 0.00 71 1012.5
20260503054526 30 266 0.0 0.0 0.00 0.00 0.00 68 1013.4
20260503053033 30 266 0.0 2.0 0.00 0.00 0.00 66 1013.5
20260503051529 31 266 0.0 2.0 0.00 0.00 0.00 65 1013.6
20260503050016 31 264 0.0 2.0 0.00 0.00 0.00 65 1013.6
20260503044540 31 266 0.0 2.0 0.00 0.00 0.00 64 1013.7
20260503043003 31 266 0.0 2.0 0.00 0.00 0.00 64 1013.8
20260503041504 31 276 0.0 3.0 0.00 0.00 0.00 64 1013.9
20260503040013 31 261 1.0 2.0 0.00 0.00 0.00 64 1013.8
20260503034514 31 266 0.0 2.0 0.00 0.00 0.00 64 1013.8
20260503033018 30 267 0.0 2.0 0.00 0.00 0.00 65 1013.8
20260503031504 30 271 0.0 2.0 0.00 0.00 0.00 66 1013.8
20260503030008 29 281 0.0 2.0 0.00 0.00 0.00 68 1013.9
20260503024512 29 281 0.0 0.0 0.00 0.00 0.00 71 1014.1
20260503023020 29 281 0.0 0.0 0.00 0.00 0.00 69 1014.2
20260503021521 30 281 0.0 0.0 0.00 0.00 0.00 69 1014.2
20260503020006 30 281 0.0 0.0 0.00 0.00 0.00 66 1014.2
20260503014509 31 281 0.0 0.0 0.00 0.00 0.00 64 1014.1
20260503013013 32 281 0.0 0.0 0.00 0.00 0.00 63 1014.1
20260503011517 33 281 0.0 0.0 0.00 0.00 0.00 60 1014.1
20260503010027 34 281 0.0 0.0 0.00 0.00 0.00 58 1013.9
20260503004506 35 281 0.0 1.0 0.00 0.00 0.00 56 1013.8
20260503003011 36 312 0.0 2.0 0.00 0.00 0.00 52 1013.7
20260503001514 38 305 0.0 2.0 0.00 0.00 0.00 49 1013.6
20260503000039 39 314 0.0 5.0 0.00 0.00 0.00 43 1013.6
20260502234525 40 354 1.0 4.0 0.00 0.00 0.00 41 1013.6
20260502233006 40 311 0.0 5.0 0.00 0.00 0.00 45 1013.7
20260502231515 41 360 1.0 8.0 0.00 0.00 0.00 1013.7
20260502230016 41 310 1.0 6.0 0.00 0.00 0.00 46 1013.7
20260502224521 41 302 1.0 7.0 0.00 0.00 0.00 48 1013.8
20260502223029 41 255 2.0 5.0 0.00 0.00 0.00 49 1013.7
20260502221508 41 316 2.0 7.0 0.00 0.00 0.00 49 1013.8
20260502220016 41 285 0.0 6.0 0.00 0.00 0.00 54 1013.9